Location: Home
(42.5358°N, 72.7383°W)
Time: 06:14:05
(UTC-05:00)

Courier 1B Rocket - Pass Details

Date: 07 December 2021
Orbit: 920 x 1202 km, 28.2° (Epoch: 25 January)

Event Time Altitude Azimuth Distance (km) Brightness Sun altitude
Rises 19:32:45 0° 207° (SSW) 3,845 8.4 -35.1°
Enters shadow 19:36:38 - 185° (S) 2,993 7.6 -35.8°
Reaches altitude 10° 19:37:56 10° 175° (S) 2,812 - -36.0°
Maximum altitude 19:39:53 11° 159° (SSE) 2,688 - -36.4°
Drops below altitude 10° 19:41:48 10° 142° (SE) 2,757 - -36.8°
Sets 19:46:41 0° 110° (ESE) 3,641 - -37.7°
